Location: Aufkirchen
(47.9603°N, 11.3653°E)
Time: 11:41:16
(UTC+01:00)

Tiros 1 - Pass Details

Date: 03 December 2020
Orbit: 630 x 663 km, 48.4° (Epoch: 21 January)

Event Time Altitude Azimuth Distance (km) Brightness Sun altitude
Rises 17:54:46 0° 282° (WNW) 2,994 11.7 -14.7°
Reaches altitude 10° 17:57:07 10° 281° (W) 2,078 10.8 -15.1°
Maximum altitude 18:01:55 78° 196° (SSW) 676 7.2 -15.9°
Enters shadow 18:04:59 22° 112° (ESE) 1,427 8.5 -16.4°
Drops below altitude 10° 18:06:40 10° 110° (ESE) 2,057 - -16.6°
Sets 18:09:00 0° 109° (ESE) 2,961 - -17.0°
